Weather History for Cody, WY

Change the Weather History Date:

Friday, September 13, 2013

  Actual Average Record
Temperature  
Mean Temperature 60 °F -  
Max Temperature 68 °F 68 °F 92 °F (1937)
Min Temperature 53 °F 42 °F 27 °F (1949)
Degree Days  
Heating Degree Days 4    
Growing Degree Days 10 (Base 50)    
Moisture  
Dew Point 50 °F    
Average Humidity 71    
Maximum Humidity 88    
Minimum Humidity 56    
Precipitation  
Precipitation 0.00 in - - ()
Sea Level Pressure  
Sea Level Pressure 30.03 in    
Wind  
Wind Speed 5 mph (South)    
Max Wind Speed 15 mph    
Max Gust Speed 20 mph    
Visibility 10 miles    
Events      
Averages and records for this station are not official NWS values.
T = Trace of Precipitation, MM = Missing Value Source: NWS Daily Summary

Daily Weather History Graph

Daily Weather History Graph

Search for Another Location

Airport:

Trip Planner

Search our weather history database for the weather conditions in past years. The results will help you decide how hot, cold, wet, or windy it might be!

Date:

Astronomy

Sep. 13, 2013 Rise Set
Actual Time 6:53 AM MDT 7:29 PM MDT
Civil Twilight 6:23 AM MDT 7:59 PM MDT
Nautical Twilight 5:48 AM MDT 8:33 PM MDT
Astronomical Twilight 5:12 AM MDT 9:09 PM MDT
Moon 3:32 PM MDT (9/13) 12:15 AM MDT (9/13)
Length of Visible Light 13h 35m
Length of Day
12h 36m
Waxing Gibbous, 62% of the Moon is Illuminated
Sep 13
Waxing Gibbous
Sep 19
Full
Sep 26
Last Quarter
Oct 4
New
Oct 11
First Quarter

Hourly Weather History & Observations

Time (MDT) Temp. Dew Point Humidity Pressure Visibility Wind Dir Wind Speed Gust Speed Precip Events Conditions
12:16 AM 55.4 °F 48.2 °F 77% 30.17 in 10.0 mi Calm Calm - N/A   Clear
12:35 AM 55.4 °F 48.2 °F 77% 30.17 in 10.0 mi South 5.8 mph - N/A   Clear
12:55 AM 55.4 °F 48.2 °F 77% 30.16 in 10.0 mi South 9.2 mph - N/A   Clear
1:15 AM 55.4 °F 48.2 °F 77% 30.15 in 10.0 mi SW 4.6 mph - N/A   Clear
1:55 AM 53.6 °F 48.2 °F 82% 30.15 in 10.0 mi Calm Calm - N/A   Clear
2:15 AM 53.6 °F 48.2 °F 82% 30.15 in 10.0 mi SSE 4.6 mph - N/A   Clear
2:35 AM 53.6 °F 48.2 °F 82% 30.14 in 10.0 mi South 5.8 mph - N/A   Clear
2:55 AM 55.4 °F 48.2 °F 77% 30.14 in 10.0 mi South 8.1 mph - N/A   Clear
3:35 AM 53.6 °F 48.2 °F 82% 30.13 in 10.0 mi South 8.1 mph - N/A   Clear
3:55 AM 53.6 °F 48.2 °F 82% 30.13 in 10.0 mi South 5.8 mph - N/A   Clear
4:15 AM 53.6 °F 48.2 °F 82% 30.12 in 10.0 mi SSW 4.6 mph - N/A   Clear
4:35 AM 53.6 °F 48.2 °F 82% 30.12 in 10.0 mi SW 3.5 mph - N/A   Clear
4:55 AM 53.6 °F 48.2 °F 82% 30.12 in 10.0 mi SW 5.8 mph - N/A   Scattered Clouds
5:15 AM 53.6 °F 48.2 °F 82% 30.11 in 10.0 mi SW 8.1 mph - N/A   Scattered Clouds
5:35 AM 55.4 °F 48.2 °F 77% 30.11 in 10.0 mi SW 6.9 mph - N/A   Mostly Cloudy
5:55 AM 55.4 °F 48.2 °F 77% 30.10 in 10.0 mi SSW 4.6 mph - N/A   Overcast
6:15 AM 55.4 °F 46.4 °F 72% 30.09 in 10.0 mi SSW 9.2 mph - N/A   Overcast
6:35 AM 55.4 °F 48.2 °F 77% 30.09 in 10.0 mi SW 6.9 mph - N/A   Overcast
6:55 AM 55.4 °F 48.2 °F 77% 30.08 in 10.0 mi SSW 4.6 mph - N/A   Overcast
7:15 AM 55.4 °F 48.2 °F 77% 30.08 in 10.0 mi South 8.1 mph - N/A   Overcast
7:35 AM 57.2 °F 48.2 °F 72% 30.08 in 10.0 mi SSW 10.4 mph - N/A   Overcast
7:55 AM 57.2 °F 48.2 °F 72% 30.08 in 10.0 mi SW 8.1 mph - N/A   Overcast
8:15 AM 59.0 °F 48.2 °F 67% 30.07 in 10.0 mi SSW 9.2 mph - N/A   Overcast
8:35 AM 59.0 °F 48.2 °F 67% 30.06 in 10.0 mi WNW 4.6 mph - N/A   Scattered Clouds
8:55 AM 55.4 °F 50.0 °F 82% 30.05 in 10.0 mi Calm Calm - N/A   Clear
9:15 AM 59.0 °F 48.2 °F 67% 30.05 in 10.0 mi South 5.8 mph - N/A   Clear
9:35 AM 60.8 °F 48.2 °F 63% 30.05 in 10.0 mi South 5.8 mph - N/A   Clear
9:55 AM 60.8 °F 48.2 °F 63% 30.05 in 10.0 mi SW 8.1 mph - N/A   Clear
10:15 AM 62.6 °F 48.2 °F 59% 30.05 in 10.0 mi Calm Calm - N/A   Clear
10:35 AM 62.6 °F 48.2 °F 59% 30.05 in 10.0 mi SSE 5.8 mph - N/A   Clear
10:55 AM 64.4 °F 48.2 °F 56% 30.04 in 10.0 mi SSE 10.4 mph - N/A   Scattered Clouds
11:15 AM 64.4 °F 48.2 °F 56% 30.05 in 10.0 mi South 13.8 mph - N/A   Mostly Cloudy
11:35 AM 64.4 °F 48.2 °F 56% 30.04 in 10.0 mi SSW 8.1 mph - N/A   Mostly Cloudy
11:55 AM 64.4 °F 50.0 °F 59% 30.03 in 10.0 mi South 5.8 mph - N/A   Mostly Cloudy
12:15 PM 64.4 °F 51.8 °F 64% 30.02 in 10.0 mi Calm Calm - N/A   Overcast
12:35 PM 64.4 °F 51.8 °F 64% 30.02 in 10.0 mi NNW 3.5 mph - N/A   Overcast
12:55 PM 64.4 °F 51.8 °F 64% 30.02 in 10.0 mi Calm Calm - N/A   Overcast
1:15 PM 64.4 °F 51.8 °F 64% 30.01 in 10.0 mi Calm Calm - N/A   Mostly Cloudy
1:35 PM 66.2 °F 53.6 °F 64% 30.01 in 10.0 mi Calm Calm - N/A   Mostly Cloudy
1:55 PM 64.4 °F 53.6 °F 68% 30.00 in 10.0 mi Calm Calm - N/A   Mostly Cloudy
2:15 PM 66.2 °F 51.8 °F 60% 29.99 in 10.0 mi Calm Calm - N/A   Mostly Cloudy
2:35 PM 66.2 °F 51.8 °F 60% 29.98 in 10.0 mi Calm Calm - N/A   Mostly Cloudy
2:55 PM 66.2 °F 51.8 °F 60% 29.98 in 10.0 mi Calm Calm - N/A   Overcast
3:16 PM 66.2 °F 55.4 °F 68% 29.97 in 10.0 mi Calm Calm - N/A   Overcast
3:35 PM 66.2 °F 55.4 °F 68% 29.96 in 10.0 mi NNW 3.5 mph - N/A   Overcast
3:55 PM 66.2 °F 53.6 °F 64% 29.96 in 10.0 mi North 3.5 mph - N/A   Mostly Cloudy
4:15 PM 66.2 °F 55.4 °F 68% 29.96 in 10.0 mi NE 4.6 mph - N/A   Scattered Clouds
4:35 PM 66.2 °F 55.4 °F 68% 29.95 in 10.0 mi NE 4.6 mph - N/A   Mostly Cloudy
4:55 PM 68.0 °F 51.8 °F 56% 29.95 in 10.0 mi ESE 15.0 mph 19.6 mph N/A   Partly Cloudy
5:15 PM 64.4 °F 48.2 °F 56% 29.95 in 10.0 mi East 13.8 mph - N/A   Clear
5:35 PM 64.4 °F 50.0 °F 59% 29.95 in 10.0 mi ESE 13.8 mph - N/A   Clear
5:55 PM 62.6 °F 50.0 °F 63% 29.95 in 10.0 mi ESE 12.7 mph - N/A   Clear
6:15 PM 62.6 °F 51.8 °F 68% 29.96 in 10.0 mi ESE 13.8 mph - N/A   Clear
6:35 PM 62.6 °F 51.8 °F 68% 29.96 in 10.0 mi ESE 12.7 mph - N/A   Clear
6:55 PM 62.6 °F 51.8 °F 68% 29.96 in 10.0 mi ESE 5.8 mph - N/A   Clear
7:15 PM 62.6 °F 50.0 °F 63% 29.96 in 10.0 mi East 6.9 mph - N/A   Clear
7:35 PM 60.8 °F 53.6 °F 77% 29.96 in 10.0 mi ESE 10.4 mph - N/A   Clear
7:55 PM 60.8 °F 51.8 °F 72% 29.97 in 10.0 mi ESE 8.1 mph - N/A   Clear
8:15 PM 59.0 °F 51.8 °F 77% 29.97 in 10.0 mi East 5.8 mph - N/A   Clear
8:35 PM 57.2 °F 51.8 °F 82% 29.98 in 10.0 mi West 3.5 mph - N/A   Clear
8:55 PM 57.2 °F 51.8 °F 82% 29.98 in 10.0 mi SSW 3.5 mph - N/A   Clear
9:15 PM 55.4 °F 50.0 °F 82% 29.98 in 10.0 mi Calm Calm - N/A   Clear
9:35 PM 53.6 °F 48.2 °F 82% 29.99 in 10.0 mi South 3.5 mph - N/A   Clear
9:55 PM 53.6 °F 48.2 °F 82% 29.99 in 10.0 mi Calm Calm - N/A   Mostly Cloudy
10:15 PM 53.6 °F 48.2 °F 82% 29.98 in 10.0 mi Calm Calm - N/A   Overcast
10:35 PM 53.6 °F 50.0 °F 88% 29.99 in 10.0 mi West 3.5 mph - N/A   Overcast
10:55 PM 55.4 °F 48.2 °F 77% 29.98 in 10.0 mi Calm Calm - N/A   Mostly Cloudy
11:15 PM 55.4 °F 48.2 °F 77% 29.98 in 10.0 mi Calm Calm - N/A   Mostly Cloudy
11:35 PM 55.4 °F 48.2 °F 77% 29.98 in 10.0 mi SSW 4.6 mph - N/A   Scattered Clouds
11:55 PM 53.6 °F 48.2 °F 82% 29.98 in 10.0 mi South 5.8 mph - N/A   Partly Cloudy